Santiago de Cuba, Cuba

8:57 PM CDT on September 21, 2017 (GMT -0400)
Antonio Maceo International

Weather History for MUCU - May, 2017

Change the Weather History Date:

Friday, May 19, 2017

  Actual Average Record
Temperature  
Mean Temperature 80 °F -  
Max Temperature 85 °F 84 °F 87 °F (2005)
Min Temperature 75 °F 73 °F 69 °F (2001)
Cooling Degree Days 15    
Growing Degree Days 30 (Base 50)    
Moisture  
Dew Point 69 °F    
Average Humidity 68    
Maximum Humidity 78    
Minimum Humidity 51    
Precipitation  
Precipitation 0.00 in - - ()
Sea Level Pressure  
Sea Level Pressure 29.94 in    
Wind  
Wind Speed 5 mph ()    
Max Wind Speed 12 mph    
Max Gust Speed -    
Visibility 5.5 miles    
Events      
Averages and records for this station are not official NWS values.
T = Trace of Precipitation, MM = Missing Value Source: Averaged Metar Reports

Daily Weather History Graph

Daily Weather History Graph

Search for Another Location

Airport or City:

Trip Planner

Search our weather history database for the weather conditions in past years. The results will help you decide how hot, cold, wet, or windy it might be!

Date:

Astronomy

May. 19, 2017 Rise Set
Actual Time 6:25 AM CDT 7:34 PM CDT
Civil Twilight 6:02 AM CDT 7:57 PM CDT
Nautical Twilight 5:33 AM CDT 8:26 PM CDT
Astronomical Twilight 5:04 AM CDT 8:55 PM CDT
Moon 1:44 AM CDT (5/19) 1:35 PM CDT (5/19)
Length of Visible Light 13h 55m
Length of Day
13h 08m
Last Quarter, 43% of the Moon is Illuminated
May 19
Last Quarter
May 25
New
Jun 1
First Quarter
Jun 9
Full
Jun 17
Last Quarter

Hourly Weather History & Observations

Time (CDT) Temp. Heat Index Dew Point Humidity Pressure Visibility Wind Dir Wind Speed Gust Speed Precip Events Conditions
12:50 AM 77.0 °F - 66.2 °F 69% 29.95 in 5.0 mi NNW 4.6 mph - N/A   Scattered Clouds
1:50 AM 78.8 °F - 66.2 °F 65% 29.92 in 5.0 mi Variable 2.3 mph - N/A   Scattered Clouds
2:00 AM 78 °F - 66 °F 58% 29.94 in 5 mi NNW 2.2 mph - -   Haze
2:50 AM 77.0 °F - 66.2 °F 69% 29.92 in 5.0 mi NNW 3.5 mph - N/A   Scattered Clouds
3:50 AM 77.0 °F - 66.2 °F 69% 29.92 in 5.0 mi NNW 4.6 mph - N/A   Scattered Clouds
4:50 AM 77.0 °F - 68.0 °F 74% 29.92 in 5.0 mi NNW 4.6 mph - N/A   Scattered Clouds
5:00 AM 76 °F - 67 °F 68% 29.92 in 5 mi NNW 4.5 mph - -   Haze
5:52 AM 77.0 °F - 66.2 °F 69% 29.92 in 5.0 mi NNW 3.5 mph - N/A   Mostly Cloudy
6:51 AM 75.2 °F - 68.0 °F 78% 29.95 in 5.0 mi NNW 4.6 mph - N/A   Mostly Cloudy
7:50 AM 77.0 °F - 69.8 °F 78% 29.95 in 5.6 mi NNW 3.5 mph - N/A   Mostly Cloudy
8:00 AM 77 °F - 69 °F 70% 29.97 in 6 mi NNW 4.5 mph - -   Haze
8:51 AM 78.8 °F - 69.8 °F 74% 29.98 in 5.6 mi North 3.5 mph - N/A   Mostly Cloudy
9:51 AM 82.4 °F 86.3 °F 69.8 °F 66% 29.98 in 5.6 mi Variable 2.3 mph - N/A   Mostly Cloudy
10:50 AM 84.2 °F 87.3 °F 68.0 °F 58% 29.98 in 5.6 mi South 4.6 mph - N/A   Mostly Cloudy
11:00 AM 83 °F - 68 °F 51% 29.98 in 6 mi South 4.5 mph - -   Haze
11:51 AM 84.2 °F 89.6 °F 71.6 °F 66% 29.98 in 5.6 mi South 4.6 mph - N/A   Mostly Cloudy
12:50 PM 84.2 °F 89.6 °F 71.6 °F 66% 29.95 in 5.6 mi SSE 9.2 mph - N/A   Mostly Cloudy
1:50 PM 84.2 °F 89.6 °F 71.6 °F 66% 29.95 in 5.6 mi SSE 8.1 mph - N/A   Mostly Cloudy
2:00 PM 84 °F - 72 °F 60% 29.96 in 6 mi SSE 8.9 mph - -   Haze
2:52 PM 86.0 °F 93.4 °F 73.4 °F 66% 29.92 in 5.6 mi SE 10.4 mph - N/A   Scattered Clouds
3:53 PM 84.2 °F 89.6 °F 71.6 °F 66% 29.92 in 5.6 mi SE 11.5 mph - N/A   Scattered Clouds
4:51 PM 84.2 °F 89.6 °F 71.6 °F 66% 29.92 in 5.6 mi SE 11.5 mph - N/A   Mostly Cloudy
5:00 PM 83 °F - 72 °F 61% 29.93 in 6 mi SE 11.2 mph - -   Haze
5:51 PM 84.2 °F 88.4 °F 69.8 °F 62% 29.92 in 5.6 mi SE 10.4 mph - N/A   Mostly Cloudy
6:50 PM 82.4 °F 86.3 °F 69.8 °F 66% 29.92 in 5.6 mi SE 10.4 mph - N/A   Mostly Cloudy
7:50 PM 80.6 °F 83.9 °F 69.8 °F 70% 29.92 in 5.6 mi ESE 6.9 mph - N/A   Scattered Clouds
8:00 PM 80 °F - 70 °F 64% 29.95 in 6 mi ESE 6.7 mph - -   Partly Cloudy
8:50 PM 78.8 °F - 69.8 °F 74% 29.95 in 5.6 mi East 3.5 mph - N/A   Scattered Clouds
9:50 PM 77.0 °F - 68.0 °F 74% 29.98 in 5.6 mi NNE 4.6 mph - N/A   Scattered Clouds
10:51 PM 75.2 °F - 68.0 °F 78% 29.95 in 5.6 mi North 5.8 mph - N/A   Scattered Clouds
11:50 PM 75.2 °F - 68.0 °F 78% 29.95 in 5.6 mi North 6.9 mph - N/A   Partly Cloudy